Location: Kolin
(50.0330°N, 15.2000°E)
Time: 07:54:14
(UTC+02:00)

Gurwin Techsat 1B - Pass Details

Date: 16 August 2022
Orbit: 811 x 814 km, 98.8° (Epoch: 25 September)

Event Time Altitude Azimuth Distance (km) Brightness Sun altitude
Rises 04:42:11 0° 9° (N) 3,352 12.6 -10.3°
Reaches altitude 10° 04:44:40 10° 2° (N) 2,415 11.6 -10.0°
Maximum altitude 04:49:33 38° 296° (WNW) 1,230 9.4 -9.3°
Enters shadow 04:54:17 11° 231° (SW) 2,354 10.3 -8.7°
